Vertical_Velocity
-1 -1 1 1 -1 2 -0 6 2 1 3 4 2 3 2 -1 6 6 3 -1 -5 -3 -1 0 1 0 0 2 -0 1 -2 13 -1 -0 -1 2 -9 -5 -2 6 -1 -2 -2 2 -2 -3 -11 -4 -2 -1 -1 0 1 -2
2 1 -1 -2 -2 2 1 -3 4 -1 4 4 5 4 3 4 4 5 5 3 -4 -3 5 1 -0 1 1 5 1 3 6 -3 -5 -12 -10 -13 -5 -7 -3 -8 2 -8 1 -1 4 -8 -7 -5 -3 -2 1 1 2 -3
4 4 3 2 3 -2 4 1 1 -2 1 1 3 2 -1 0 -3 8 -2 4 2 0 -2 8 10 7 5 4 1 -5 -1 -3 -4 5 -5 -2 3 -7 -1 -1 5 -2 4 -8 -2 4 -2 -1 2 -0 -1 1 2 -3
-1 4 3 1 3 10 3 5 2 2 2 3 1 -1 3 4 3 3 3 0 6 7 -9 7 0 8 6 -0 -4 -3 -4 -5 -3 3 -3 -0 9 -3 -8 -1 8 6 2 -5 5 5 -13 4 1 -0 -4 -2 0 -1
4 3 3 3 -2 3 6 7 -0 8 -0 0 5 3 3 8 2 5 3 -4 1 1 -10 -3 3 4 3 2 -1 -0 -2 -2 -6 -4 -1 -4 1 -1 -2 7 10 8 -7 -3 1 1 -6 -6 0 6 3 1 -3 1
3 2 9 1 2 5 3 -2 2 7 9 8 3 6 13 2 6 18 3 10 10 3 -7 -12 -6 1 3 2 -0 5 3 -1 -1 -0 1 -0 3 -1 -8 -1 9 3 0 -1 2 2 2 -0 -1 -2 0 -0 -2 -1
-4 -1 -1 4 1 2 7 8 1 0 2 6 -0 10 3 11 4 -2 1 -0 6 -2 -6 -10 -8 4 -0 1 1 -2 -3 -5 -1 -1 1 -1 3 1 -9 6 6 -1 3 3 -2 -1 3 2 1 -1 2 1 -3 -2
2 -1 -2 -6 -1 4 1 4 5 -1 -0 1 0 9 10 -0 -5 2 0 1 0 -5 -3 -12 -1 -7 3 -4 -3 -2 2 1 1 -5 1 7 5 -0 -8 3 -1 -2 -1 1 1 -2 1 2 2 0 0 2 -1 -2
4 1 -4 -3 0 0 0 2 3 -1 -8 7 13 -1 -8 -3 2 4 3 -1 -7 -3 -8 -3 5 3 2 2 0 -7 -4 -4 -2 3 -1 -6 4 3 -2 4 3 -2 -1 -1 2 -0 1 3 3 1 -0 -1 2 1
2 5 -5 0 2 6 5 1 -2 -5 -2 11 -1 -3 -0 2 3 -0 -1 -3 -9 -4 -13 1 3 -1 -2 -2 -2 -3 -6 0 -11 -4 -10 -2 10 -1 -3 2 -0 1 1 1 1 -1 3 0 1 1 -0 -3 -1 1
5 9 -6 -3 1 11 -0 6 -6 8 -7 -10 -0 -9 7 9 3 -3 -9 -1 -3 -7 2 15 7 -6 4 1 2 -8 -2 -7 -11 -3 0 -6 14 -4 -3 -2 -2 2 -1 2 1 0 2 2 2 1 -2 -3 -3 -2
-0 7 1 -8 6 2 -6 5 10 6 -1 0 10 3 3 -0 -4 -7 -12 -2 2 1 12 5 -3 2 1 1 -3 -4 -4 -4 -1 -2 -3 -4 -3 -1 -3 -1 2 -1 1 2 0 -1 0 2 2 1 0 -1 -3 -3
4 8 6 10 -9 3 -9 13 -1 -2 11 14 2 0 10 -6 -4 -11 -6 5 14 2 1 -4 -2 -1 8 -1 -1 -6 -2 1 7 -1 1 -1 -3 -2 -1 0 -0 -1 1 0 1 -1 0 1 2 2 -2 -3 -1 -2
9 15 10 8 3 -10 1 -1 7 14 3 -0 4 9 -1 -9 -6 1 11 6 7 1 -1 1 -2 0 -2 -5 -3 4 -4 0 -10 7 -0 -5 -2 1 2 -1 -2 1 -0 -0 0 0 1 -1 -1 -1 -2 -0 -1 -2
9 9 6 1 -1 -7 -4 -1 16 -0 13 -7 10 -3 -11 4 -3 5 10 10 -0 -10 -3 3 3 -5 0 -1 -1 -2 -3 -2 4 -2 -1 -2 2 1 0 -2 -0 -0 -0 1 -1 1 0 -0 0 -0 -0 -1 -1 -1
4 1 -4 -5 -3 -9 -4 27 20 16 12 -9 -7 -6 -3 3 14 7 2 -4 -1 -0 8 4 -5 -1 -2 -2 -2 -1 3 -2 -2 0 -0 1 1 -1 -1 0 0 -1 1 0 0 -1 -1 -1 -1 -1 -0 -1 0 -0
1 -6 -9 9 10 19 14 6 -1 9 12 -6 -10 -5 4 -1 7 8 4 -4 2 4 -5 -3 5 3 -3 -9 3 1 -4 -3 0 1 1 1 -1 -1 -0 0 -1 -0 1 0 -1 -0 -0 -1 -1 -2 -0 1 0 -0
-0 10 4 -1 7 8 18 3 1 2 -9 -5 15 3 2 6 4 -2 -5 -3 1 -1 1 1 -2 2 -1 3 -2 -0 -1 0 2 1 1 -1 -2 -1 -0 -1 -1 0 -1 -1 -1 -1 -1 -1 -1 0 1 1 0 -0
-4 2 -0 3 4 1 -5 12 27 4 -9 4 1 0 9 5 -2 -2 -1 1 4 3 -4 -5 0 4 -0 -0 1 -1 -2 1 2 1 -1 -2 -1 -1 -1 -2 -2 -2 -1 -1 -3 -2 -1 0 1 1 2 1 -0 0
26 8 19 11 6 11 15 6 -2 -6 9 11 10 12 4 -6 -1 0 1 3 -2 -2 -2 2 1 -1 -1 3 1 -0 0 1 1 -0 -1 -2 -1 -0 -2 -2 -0 -1 -2 -3 -2 0 0 0 2 2 1 -0 -1 1
8 5 6 11 41 38 23 26 6 10 17 16 18 10 7 -2 -2 -0 2 3 0 1 0 -1 -2 2 3 2 0 0 0 0 -1 -2 -1 -1 -2 -1 -1 0 -1 -2 -3 -1 0 0 1 2 2 0 -0 -0 0 1
1 4 1 -2 15 1 -2 5 14 10 8 3 2 -3 -3 -2 -0 0 2 1 -0 -0 -0 1 3 3 2 1 -0 -1 -1 -2 -3 -1 -0 -1 -1 -0 -1 -2 -3 -3 -2 -2 -1 0 1 1 0 -2 -0 1 1 2
3 3 5 5 2 4 6 0 4 2 -2 -2 -0 -0 1 2 2 1 1 1 2 2 2 2 2 1 -0 -1 -2 -3 -2 -1 -1 -1 -1 -1 -0 -1 -2 -3 -2 -2 -2 -0 1 1 -0 0 -1 -1 0 1 1 2
-1 -4 -5 -3 -2 -1 0 -1 -1 0 1 2 2 -1 1 1 1 2 2 0 0 1 1 1 -0 -1 -2 -2 -2 -2 -2 -2 -2 -2 -1 -1 -1 -1 -2 -1 -1 -1 -1 -0 -0 -0 -0 -1 -1 0 1 2 2 2
1 1 1 0 0 -1 -0 0 -1 1 -1 0 2 3 3 3 2 0 -0 0 1 1 0 -1 -2 -3 -2 -4 -2 -1 -2 -3 -3 -3 -2 -2 -1 -0 -0 -1 -1 -1 -1 -0 -0 -0 -1 -1 -1 0 0 1 1 2
-2 -2 0 -0 -1 0 1 1 2 2 3 2 1 -0 -1 -1 1 1 1 1 0 -1 -2 -2 -1 -2 -2 -2 -2 -2 -3 -3 -3 -3 -3 -2 -1 0 0 -0 -0 -0 -0 -0 -0 -1 0 -0 -1 -0 1 1 2 2
-1 -0 -0 -0 1 2 1 1 1 1 1 0 -0 -1 1 1 0 -1 -1 -1 -1 -2 -2 -3 -2 -1 -1 -1 -1 -1 -1 -1 -2 -3 -4 -2 -0 0 -0 -1 -0 0 0 0 -0 -1 -0 -0 -0 0 2 3 2 2
-1 -1 -1 -1 -1 -0 -0 -0 -0 -1 -0 -0 2 0 0 -0 -1 -1 0 -2 -2 -2 -2 -2 -1 0 0 -0 -0 -1 -2 -2 -2 -2 -2 -2 -1 -1 -0 0 1 1 0 0 -1 -1 -0 0 0 1 1 1 1 1
-2 -2 -1 -1 -1 -1 -1 -0 -0 0 0 0 -0 -0 -1 -1 -2 -2 -3 -2 -2 -2 -1 -0 -0 0 0 0 -1 -3 -2 -2 -1 -1 -2 -2 -1 0 0 1 0 0 -0 -0 -0 -0 -1 -0 0 -0 -0 0 1 1
-1 -0 0 0 0 0 -0 0 -0 -0 -1 -1 -2 -2 -2 -3 -2 -2 -2 -2 -2 -1 -1 0 1 1 1 -1 -2 -2 -2 -1 -2 -2 -2 -1 -1 -0 -0 -0 -0 -0 -0 -0 -0 -1 -0 -0 -0 0 0 0 1 1
-1 -1 -1 -1 -1 -1 -1 -1 -1 -1 -1 -2 -2 -1 -1 -2 -3 -3 -2 -2 -1 -0 -0 -0 1 1 2 1 -1 -3 -4 -4 -3 -3 -2 -2 -2 -1 -1 -1 -0 0 0 -0 -0 0 0 1 0 -0 -0 0 -0 -1
-0 -0 1 1 0 -0 -0 -1 -1 -1 -2 -2 -3 -2 -3 -3 -2 -2 -0 0 0 0 1 1 2 3 2 2 0 0 -1 -1 -2 -3 -3 -3 -2 -2 -2 -1 -1 -0 -0 0 0 0 0 1 0 0 0 -1 -1 -1
1 0 -0 -0 -1 -1 -2 -1 -3 -3 -3 -3 -3 -2 -1 -1 -1 0 -0 -0 0 0 0 1 1 1 3 3 3 3 2 1 0 -1 -1 -2 -2 -2 -2 -2 -2 -2 -1 -0 0 0 0 0 -0 -0 -1 -1 -1 -1
Height
5668 5674 5680 5685 5692 5698 5704 5710 5715 5719 5722 5724 5726 5728 5729 5729 5732 5731 5729 5727 5729 5727 5726 5724 5721 5720 5719 5715 5711 5709 5705 5704 5696 5693 5689 5683 5677 5674 5667 5661 5653 5649 5641 5634 5626 5619 5616 5613 5608 5603 5597 5590 5586 5580
5653 5659 5665 5671 5677 5683 5690 5693 5699 5703 5707 5710 5713 5714 5716 5718 5719 5719 5719 5717 5716 5716 5715 5712 5711 5710 5708 5705 5701 5698 5693 5689 5685 5680 5675 5669 5666 5661 5656 5650 5646 5637 5631 5624 5618 5611 5605 5601 5595 5591 5586 5581 5576 5570
5638 5645 5651 5657 5664 5668 5675 5679 5684 5688 5693 5696 5700 5701 5702 5703 5706 5708 5706 5706 5706 5706 5704 5704 5703 5699 5694 5690 5688 5685 5682 5677 5674 5670 5664 5660 5654 5649 5644 5638 5631 5626 5617 5612 5607 5602 5596 5588 5585 5580 5575 5570 5565 5559
5622 5631 5638 5643 5650 5657 5660 5666 5670 5673 5678 5682 5684 5688 5690 5689 5691 5693 5694 5692 5691 5691 5690 5692 5689 5686 5683 5680 5676 5674 5671 5667 5664 5659 5653 5648 5643 5637 5631 5625 5620 5612 5606 5600 5596 5589 5584 5579 5574 5569 5563 5558 5555 5549
5607 5614 5621 5628 5634 5641 5648 5652 5656 5660 5662 5666 5670 5674 5674 5676 5676 5678 5676 5679 5678 5676 5673 5676 5677 5675 5671 5668 5665 5662 5658 5654 5651 5646 5640 5636 5631 5623 5618 5613 5609 5600 5593 5589 5584 5577 5570 5567 5563 5560 5554 5549 5545 5541
5588 5597 5605 5612 5619 5625 5631 5637 5641 5644 5648 5651 5652 5656 5658 5657 5660 5663 5663 5662 5659 5659 5658 5661 5663 5661 5659 5656 5653 5649 5645 5640 5636 5631 5627 5622 5616 5610 5605 5602 5597 5590 5582 5576 5573 5566 5560 5556 5552 5548 5544 5540 5536 5531
5570 5577 5586 5594 5603 5609 5615 5620 5624 5627 5631 5635 5638 5641 5640 5641 5642 5645 5647 5648 5647 5646 5647 5646 5648 5649 5646 5643 5639 5635 5631 5627 5623 5618 5614 5608 5603 5596 5593 5589 5583 5576 5572 5566 5561 5557 5552 5547 5543 5539 5536 5532 5527 5523
5554 5560 5567 5575 5584 5593 5597 5603 5608 5612 5615 5619 5624 5625 5625 5627 5630 5634 5632 5633 5632 5633 5633 5632 5633 5633 5631 5628 5624 5621 5618 5613 5609 5602 5602 5597 5590 5584 5580 5575 5569 5565 5561 5556 5551 5547 5543 5538 5534 5531 5528 5524 5519 5514
5535 5543 5550 5559 5567 5574 5581 5585 5590 5596 5600 5610 5609 5606 5611 5615 5617 5618 5619 5619 5619 5621 5617 5620 5622 5618 5615 5613 5609 5606 5603 5598 5595 5592 5588 5583 5578 5574 5568 5564 5558 5553 5549 5545 5541 5537 5533 5531 5527 5524 5520 5516 5511 5505
5516 5527 5534 5543 5552 5560 5566 5570 5575 5578 5589 5589 5591 5595 5599 5603 5602 5605 5605 5606 5606 5607 5608 5608 5605 5603 5601 5598 5594 5591 5589 5586 5580 5579 5573 5571 5566 5560 5555 5552 5547 5543 5539 5535 5531 5529 5526 5523 5520 5516 5512 5507 5502 5497
5496 5507 5517 5525 5534 5543 5549 5555 5562 5569 5568 5574 5578 5580 5586 5586 5586 5588 5590 5593 5594 5595 5596 5596 5592 5589 5587 5583 5579 5578 5573 5569 5567 5566 5561 5558 5557 5548 5544 5541 5538 5534 5530 5527 5523 5521 5519 5516 5513 5508 5503 5498 5493 5488
5479 5490 5501 5510 5517 5526 5535 5541 5548 5552 5559 5564 5566 5567 5571 5572 5574 5575 5580 5583 5583 5583 5584 5580 5578 5576 5573 5570 5566 5564 5563 5559 5555 5551 5549 5548 5544 5539 5536 5532 5528 5525 5522 5519 5517 5514 5512 5509 5504 5499 5495 5489 5484 5479
5466 5474 5485 5494 5500 5508 5519 5530 5535 5542 5545 5549 5551 5555 5555 5558 5562 5565 5570 5573 5572 5569 5569 5567 5566 5564 5561 5558 5556 5554 5552 5550 5544 5543 5539 5537 5533 5530 5526 5523 5520 5517 5515 5513 5510 5507 5504 5500 5496 5491 5486 5480 5475 5469
5456 5464 5470 5478 5485 5497 5509 5516 5523 5528 5531 5533 5539 5541 5542 5549 5553 5558 5561 5559 5558 5556 5556 5555 5554 5554 5551 5549 5547 5545 5542 5540 5537 5534 5529 5527 5523 5520 5517 5516 5513 5511 5509 5506 5503 5499 5496 5492 5487 5482 5476 5471 5465 5460
5444 5451 5458 5467 5478 5487 5498 5508 5510 5513 5518 5520 5526 5528 5537 5542 5542 5545 5547 5547 5547 5547 5547 5547 5544 5544 5541 5540 5538 5537 5534 5529 5528 5523 5520 5518 5515 5513 5512 5509 5507 5504 5502 5498 5495 5491 5487 5482 5476 5471 5466 5461 5456 5451
5438 5443 5452 5462 5472 5479 5489 5501 5503 5506 5507 5510 5517 5521 5527 5532 5535 5533 5534 5536 5536 5539 5538 5536 5535 5534 5533 5532 5530 5526 5523 5520 5518 5515 5512 5510 5509 5507 5504 5502 5499 5496 5493 5489 5485 5480 5476 5470 5465 5460 5456 5451 5447 5443
5435 5441 5450 5461 5471 5480 5486 5491 5494 5493 5497 5501 5509 5517 5522 5524 5524 5525 5521 5528 5528 5529 5529 5529 5528 5525 5522 5520 5519 5516 5514 5513 5510 5507 5505 5504 5502 5499 5496 5493 5490 5486 5482 5478 5473 5469 5463 5459 5454 5449 5445 5441 5438 5435
5436 5444 5451 5457 5464 5472 5477 5482 5485 5486 5491 5496 5505 5511 5515 5516 5516 5515 5517 5519 5522 5522 5522 5520 5518 5515 5513 5511 5509 5508 5505 5504 5502 5500 5499 5497 5494 5491 5487 5484 5480 5475 5471 5466 5461 5456 5451 5447 5442 5438 5435 5432 5430 5429
5436 5442 5448 5454 5460 5466 5472 5475 5475 5480 5488 5494 5500 5505 5506 5508 5508 5510 5512 5513 5514 5513 5512 5510 5508 5506 5504 5503 5501 5499 5498 5497 5495 5494 5491 5488 5484 5480 5476 5472 5467 5462 5457 5452 5448 5443 5439 5435 5432 5429 5427 5425 5424 5424
5432 5439 5445 5451 5456 5460 5465 5469 5478 5482 5484 5489 5492 5498 5501 5503 5503 5504 5505 5505 5503 5502 5501 5501 5499 5497 5496 5495 5494 5493 5492 5491 5489 5486 5482 5478 5473 5469 5464 5459 5454 5449 5444 5440 5436 5432 5429 5426 5423 5422 5420 5420 5419 5419
5432 5435 5439 5444 5449 5460 5463 5468 5473 5476 5478 5483 5487 5491 5493 5495 5496 5496 5495 5495 5494 5494 5493 5492 5491 5490 5489 5489 5488 5487 5485 5482 5479 5475 5471 5466 5461 5455 5450 5445 5441 5437 5433 5430 5427 5424 5421 5420 5418 5417 5415 5415 5415 5415
5433 5436 5438 5444 5452 5457 5460 5465 5469 5473 5477 5479 5482 5484 5487 5488 5488 5488 5487 5487 5486 5486 5485 5485 5484 5484 5484 5483 5481 5479 5476 5472 5467 5463 5458 5452 5447 5443 5438 5435 5431 5428 5425 5423 5420 5418 5417 5415 5414 5413 5412 5412 5411 5411
5434 5437 5441 5445 5450 5453 5456 5461 5464 5467 5471 5474 5476 5478 5479 5479 5479 5479 5479 5479 5479 5479 5480 5480 5479 5479 5477 5475 5472 5468 5464 5459 5454 5449 5444 5440 5435 5432 5429 5426 5424 5422 5420 5418 5416 5414 5413 5412 5410 5409 5409 5408 5408 5408
5433 5436 5440 5443 5446 5450 5453 5456 5459 5461 5463 5466 5467 5469 5470 5471 5472 5472 5473 5474 5475 5475 5474 5474 5472 5470 5468 5464 5460 5456 5451 5447 5442 5437 5433 5429 5426 5423 5422 5420 5418 5417 5415 5414 5412 5411 5409 5408 5407 5406 5406 5406 5405 5405
5434 5436 5439 5440 5443 5446 5448 5451 5453 5456 5458 5460 5462 5463 5465 5466 5467 5468 5469 5470 5469 5468 5467 5465 5463 5459 5456 5452 5448 5444 5439 5435 5431 5427 5423 5420 5417 5416 5416 5415 5414 5413 5411 5410 5409 5408 5406 5405 5404 5403 5403 5403 5402 5402
5434 5436 5439 5440 5442 5445 5447 5450 5452 5454 5456 5457 5459 5460 5461 5463 5464 5464 5463 5462 5461 5460 5457 5455 5451 5448 5445 5441 5437 5434 5430 5427 5424 5420 5416 5413 5411 5411 5410 5410 5409 5409 5408 5407 5406 5405 5404 5403 5402 5401 5401 5400 5400 5400
5436 5438 5440 5442 5443 5446 5447 5449 5451 5452 5454 5455 5456 5457 5458 5458 5457 5457 5455 5453 5451 5449 5446 5444 5441 5437 5434 5431 5429 5426 5424 5421 5419 5415 5411 5408 5407 5406 5406 5405 5405 5405 5404 5403 5402 5402 5401 5400 5400 5399 5398 5398 5398 5397
5437 5438 5440 5442 5444 5445 5447 5448 5449 5450 5451 5451 5451 5451 5451 5450 5449 5447 5445 5443 5441 5438 5436 5433 5430 5427 5425 5424 5423 5421 5419 5416 5414 5411 5407 5404 5402 5402 5401 5401 5401 5401 5400 5400 5399 5399 5398 5397 5397 5397 5396 5395 5395 5394
5437 5438 5439 5440 5442 5443 5444 5445 5445 5445 5445 5445 5444 5443 5442 5441 5439 5437 5435 5433 5430 5427 5424 5422 5420 5419 5419 5418 5417 5416 5413 5411 5409 5406 5403 5401 5399 5398 5397 5396 5396 5396 5396 5396 5395 5395 5395 5394 5394 5393 5393 5392 5392 5391
5435 5436 5437 5438 5438 5439 5439 5440 5439 5439 5438 5437 5436 5435 5433 5431 5429 5426 5424 5421 5418 5416 5414 5413 5413 5413 5414 5413 5412 5411 5409 5407 5405 5402 5400 5398 5396 5395 5393 5392 5391 5391 5391 5391 5391 5390 5390 5390 5389 5389 5389 5388 5388 5387
5432 5433 5433 5434 5434 5434 5434 5434 5433 5432 5430 5429 5427 5425 5423 5420 5417 5415 5413 5410 5408 5407 5406 5406 5406 5407 5408 5408 5408 5407 5405 5404 5401 5399 5397 5395 5393 5392 5390 5388 5387 5386 5385 5385 5385 5384 5384 5384 5384 5383 5383 5383 5382 5382
5429 5430 5430 5429 5429 5428 5427 5426 5425 5423 5421 5419 5417 5415 5412 5409 5407 5405 5403 5401 5400 5399 5399 5399 5400 5401 5402 5402 5402 5401 5400 5399 5398 5396 5395 5393 5391 5389 5387 5385 5383 5382 5380 5379 5377 5377 5376 5376 5376 5376 5376 5376 5376 5375
5425 5425 5424 5424 5423 5421 5420 5419 5416 5414 5411 5408 5406 5404 5402 5400 5398 5397 5395 5394 5393 5393 5392 5393 5394 5395 5396 5396 5397 5396 5395 5394 5393 5391 5390 5388 5386 5385 5383 5380 5378 5376 5374 5372 5371 5369 5368 5367 5367 5367 5367 5367 5367 5367